Change the Weather History Date:

Wednesday, December 5, 2012

  Actual Average (KGTF) Record (KGTF)
Temperature  
Mean Temperature 44 °F 26 °F  
Max Temperature 54 °F 36 °F 69 °F (1939)
Min Temperature 32 °F 17 °F -26 °F (2013)
Degree Days  
Heating Degree Days 21 39  
Month to date heating degree days 192  
Since 1 July heating degree days 2161  
Cooling Degree Days 0 0  
Month to date cooling degree days 0  
Year to date cooling degree days 298  
Moisture  
Dew Point 22 °F    
Average Humidity 40    
Maximum Humidity 52    
Minimum Humidity 20    
Precipitation  
Precipitation 0.00 in 0.02 in 0.26 in (1932)
Month to date precipitation 0.09  
Year to date precipitation 14.29  
Snow  
Snow 0.00 in 0.30 in 5.00 in (1898)
Month to date snowfall 1.4  
Since 1 July snowfall 15.1  
Snow Depth -    
Sea Level Pressure  
Sea Level Pressure 29.85 in    
Wind  
Wind Speed 23 mph (SW)    
Max Wind Speed 33 mph    
Max Gust Speed 46 mph    
Visibility 10 miles    
Events      
T = Trace of Precipitation, MM = Missing Value Source: NWS Daily Summary

Daily Weather History Graph

Daily Weather History Graph

Search for Another Location

Airport or City:

Trip Planner

Search our weather history database for the weather conditions in past years. The results will help you decide how hot, cold, wet, or windy it might be!

Date:

Astronomy

Dec. 05, 2012 Rise Set
Actual Time 7:56 AM MST 4:34 PM MST
Civil Twilight 7:21 AM MST 5:09 PM MST
Nautical Twilight 6:42 AM MST 5:48 PM MST
Astronomical Twilight 6:05 AM MST 6:25 PM MST
Moon 11:49 PM MST (12/5) 12:02 PM MST (12/5)
Length of Visible Light 9h 48m
Length of Day
8h 37m
Waning Gibbous, 59% of the Moon is Illuminated
Dec 5
Waning Gibbous
Dec 6
Last Quarter
Dec 13
New
Dec 19
First Quarter
Dec 28
Full

Hourly Weather History & Observations

Time (MST) Temp. Windchill Dew Point Humidity Pressure Visibility Wind Dir Wind Speed Gust Speed Precip Events Conditions
12:56 AM 51.1 °F - 33.1 °F 50% 29.75 in 10.0 mi SSW 27.6 mph 33.4 mph N/A   Clear
1:56 AM 50.0 °F - 33.1 °F 52% 29.74 in 10.0 mi SSW 18.4 mph 28.8 mph N/A   Clear
2:56 AM 52.0 °F - 32.0 °F 47% 29.70 in 10.0 mi South 33.4 mph 42.6 mph N/A   Clear
3:56 AM 51.1 °F - 32.0 °F 48% 29.68 in 10.0 mi South 29.9 mph 40.3 mph N/A   Clear
4:56 AM 50.0 °F - 32.0 °F 50% 29.68 in 10.0 mi South 25.3 mph 32.2 mph N/A   Clear
5:56 AM 51.1 °F - 32.0 °F 48% 29.65 in 10.0 mi South 27.6 mph 33.4 mph N/A   Clear
7:56 AM 48.9 °F - 32.0 °F 52% 29.68 in 10.0 mi South 16.1 mph - N/A   Clear
8:56 AM 51.1 °F - 32.0 °F 48% 29.68 in 10.0 mi South 17.3 mph - N/A   Partly Cloudy
9:56 AM 53.1 °F - 34.0 °F 48% 29.70 in 10.0 mi SSW 27.6 mph 40.3 mph N/A   Scattered Clouds
10:56 AM 53.1 °F - 30.9 °F 43% 29.72 in 10.0 mi SSW 32.2 mph 41.4 mph N/A   Clear
11:56 AM 54.0 °F - 27.0 °F 35% 29.72 in 10.0 mi SW 23.0 mph 36.8 mph N/A   Partly Cloudy
12:56 PM 52.0 °F - 19.9 °F 28% 29.75 in 10.0 mi WSW 25.3 mph 46.0 mph N/A   Clear
1:56 PM 51.1 °F - 12.9 °F 22% 29.79 in 10.0 mi SW 25.3 mph 41.4 mph N/A   Clear
2:56 PM 48.9 °F - 9.0 °F 20% 29.85 in 10.0 mi West 27.6 mph 36.8 mph N/A   Clear
3:56 PM 46.0 °F 36.5 °F 10.0 °F 23% 29.91 in 10.0 mi WSW 31.1 mph 41.4 mph N/A   Clear
4:56 PM 42.1 °F 34.5 °F 10.9 °F 28% 29.98 in 10.0 mi West 15.0 mph 23.0 mph N/A   Scattered Clouds
5:56 PM 37.9 °F 32.7 °F 10.9 °F 33% 30.03 in 10.0 mi NNW 6.9 mph - N/A   Clear
6:56 PM 36.0 °F 29.0 °F 12.0 °F 37% 30.06 in 10.0 mi West 9.2 mph - N/A   Clear
7:56 PM 36.0 °F 31.1 °F 12.0 °F 37% 30.09 in 10.0 mi West 5.8 mph - N/A   Clear
8:56 PM 36.0 °F 27.5 °F 12.0 °F 37% 30.09 in 10.0 mi SSW 12.7 mph - N/A   Clear
9:56 PM 36.0 °F 29.0 °F 10.9 °F 36% 30.10 in 10.0 mi SW 9.2 mph - N/A   Clear
10:56 PM 34.0 °F 24.6 °F 12.0 °F 40% 30.11 in 10.0 mi SSW 13.8 mph - N/A   Clear
11:56 PM 32.0 °F 24.2 °F 14.0 °F 48% 30.12 in 10.0 mi South 9.2 mph - N/A   Clear